Flag for Kazakhstan Weather past 2 weeks in Astana, Kazakhstan

Now
39 °F

Clear.


Feels Like: 34 °F
Forecast: 39 / 63 °F
Wind: 8 mph from East

Location: Astana

Current Time: Sep 23, 2014 at 1:16:26 AM

Latest Report: Sep 23, 2014 at 12:30 AM


Visibility: 5 mi

Pressure: 30.21 "Hg

Humidity: 81%

Dew point: 34 °F

Location of AstanaLocation

Historic Weather in Astana — Graph

°F

Astana temperature yesterday

Maximum temperature yesterday: 64 °F (at 3:30 PM)
Minimum temperature yesterday: 32 °F (at 6:30 AM)
Average temperature yesterday: 48 °F

Past Weeks' High & Low Weather Summary

 TemperatureHumidityPressure
High77 °F (Sep 17, 2:30 PM)100% (Sep 18, 7:00 AM)30.39 "Hg (Sep 18, 7:00 AM)
Low27 °F (Sep 12, 7:00 AM)14% (Sep 17, 2:30 PM)29.50 "Hg (Sep 17, 5:30 PM)
Average49 °F62%30.05 "Hg
* Reported Sep 8 12:30 AM — Midnight between Sep 22 and Sep 23, Astana, Weather by CustomWeather, © 2014

Note: Actual official high and low records may vary slightly from our data, if they occured in-between our weather recording intervals... More about our weather records

Advertising

Astana weather history for previous 24 hours

 ConditionsComfort  
Time TempWeatherWind HumidityBarometerVisibility
12:00 AM
Sep 23
39 °FClear.6 mph81%30.21 "Hg10 mi
11:30 PM
Sep 22
41 °FClear.6 mph76%30.21 "Hg10 mi
11:00 PM41 °FClear.6 mph76%30.21 "Hg10 mi
10:30 PM43 °FClear.6 mph76%30.21 "Hg10 mi
10:00 PM43 °FClear.6 mph76%30.21 "Hg10 mi
9:30 PM45 °FPassing clouds.6 mph66%30.21 "HgN/A
9:00 PM45 °FClear.6 mph71%30.21 "Hg10 mi
8:30 PM48 °FClear.6 mph58%30.21 "Hg10 mi
8:00 PM52 °FClear.3 mph54%30.21 "Hg10 mi
7:30 PM54 °FClear.6 mph47%30.21 "Hg10 mi
7:00 PM57 °FSunny.6 mph41%30.18 "Hg10 mi
6:30 PM61 °FSunny.3 mph36%30.18 "Hg10 mi
6:00 PM63 °FPartly sunny.3 mph34%30.18 "HgN/A
5:30 PM63 °FPartly sunny.3 mph34%30.18 "HgN/A
5:00 PM61 °FPartly sunny.1 mph36%30.18 "HgN/A
4:30 PM63 °FPartly sunny.3 mph32%30.18 "HgN/A
4:00 PM61 °FPartly sunny.6 mph31%30.18 "HgN/A
3:30 PM64 °FPassing clouds.6 mph32%30.18 "HgN/A
3:00 PM63 °FSunny.1 mph34%30.21 "Hg10 mi
2:30 PM63 °FPassing clouds.3 mph37%30.21 "HgN/A
2:00 PM63 °FPassing clouds.6 mph37%30.21 "HgN/A
1:30 PM63 °FPartly sunny.3 mph37%30.21 "HgN/A
1:00 PM63 °FPartly sunny.6 mph37%30.24 "HgN/A
12:30 PM61 °FBroken clouds.6 mph39%30.24 "HgN/A
12:00 PM59 °FScattered clouds.3 mph45%30.24 "HgN/A
11:30 AM57 °FPassing clouds.3 mph51%30.24 "HgN/A
11:00 AM57 °FSunny.1 mph55%30.24 "Hg10 mi
10:30 AM52 °FSunny.1 mph67%30.24 "Hg10 mi
10:00 AM50 °FSunny.1 mph71%30.24 "Hg10 mi
9:30 AM48 °FSunny.No wind71%30.24 "Hg10 mi
9:00 AM45 °FSunny.1 mph87%30.24 "Hg10 mi
8:30 AM41 °FPassing clouds.3 mph93%30.24 "Hg6 mi
8:00 AM34 °FPassing clouds.3 mph100%30.21 "Hg4 mi
7:30 AM32 °FPassing clouds.1 mph93%30.21 "Hg4 mi
7:00 AM32 °FPassing clouds.1 mph93%30.21 "Hg4 mi
6:30 AM32 °FPassing clouds.3 mph93%30.21 "Hg5 mi
6:00 AM34 °FClear.1 mph93%30.21 "Hg10 mi
5:30 AM34 °FClear.3 mph93%30.21 "Hg10 mi
5:00 AM34 °FPassing clouds.3 mph93%30.21 "HgN/A
4:30 AM34 °FClear.3 mph93%30.21 "Hg6 mi
4:00 AM36 °FPassing clouds.1 mph93%30.21 "Hg5 mi
3:30 AM36 °FFog.3 mph93%30.21 "Hg3 mi
3:00 AM36 °FPassing clouds.3 mph100%30.21 "Hg5 mi
2:30 AM37 °FPassing clouds.1 mph93%30.21 "Hg6 mi
2:00 AM39 °FPassing clouds.3 mph93%30.21 "Hg6 mi
1:30 AM39 °FPassing clouds.3 mph93%30.21 "Hg6 mi
1:00 AM41 °FPassing clouds.3 mph87%30.21 "Hg5 mi
Weather by CustomWeather, © 2014

See weather overviewHow to use our weather pages